Regional Weather Roundup
Issued by NWS

Home | Current Version | Previous Version | Graphics & Text | Print | Product List | Glossary On
Versions: 1 2 3 4 5 6 7 8 9 10 11 12 13 14 15 16 17 18 19 20 21 22 23 24 25 26 27 28 29 30 31 32 33 34 35 36 37 38 39 40 41 42 43 44 45 46 47 48 49 50
046
ASUS43 KDTX 131001
RWRMI
MICHIGAN HOURLY REGIONAL WEATHER ROUNDUP
NATIONAL WEATHER SERVICE DETROIT/PONTIAC MI
500 AM EST WED DEC 13 2017

NOTE: "FAIR" INDICATES FEW OR NO CLOUDS BELOW 12,000 FEET WITH NO
SIGNIFICANT WEATHER AND/OR OBSTRUCTION TO VISIBILITY.

MIZ047>049-052>055-059>063-066>070-074>076-081>083-131100-
SOUTHEAST LOWER MICHIGAN

CITY           SKY/WX    TMP DP  RH WIND       PRES   REMARKS
ADRIAN         CLOUDY    17  11  77 SW5       29.85F WCI  10
ALMA           CLOUDY    17  12  82 SW3       29.81F
ANN ARBOR      CLOUDY    15   8  73 SW6       29.83F WCI   6
BAD AXE        CLOUDY    12   6  76 NW7       29.81S WCI   1
CARO           CLOUDY    14   7  73 W5        29.80F WCI   7
DETROIT CITY   CLOUDY    15   8  73 W3        29.84F
DETROIT        CLOUDY    17   7  64 SW7       29.86S WCI   8
FLINT          CLOUDY    15   9  76 W6        29.82F WCI   6
GROSSE ILE     CLOUDY    17   8  67 W6        29.85S WCI   8
HILLSDALE      CLOUDY    16  12  86 S3        29.81S
HOWELL         CLOUDY    15   9  78 SW5       29.81S WCI   7

CITY           SKY/WX    TMP DP  RH WIND       PRES   REMARKS
JACKSON        CLOUDY    17  10  74 S7        29.82F WCI   8
LAMBERTVILLE   CLOUDY    18  11  75 W6        29.86F WCI   9
LANSING        CLOUDY    16  10  77 SW7       29.82F WCI   6
LAPEER         CLOUDY    14   7  73 CALM      29.81S
MASON          CLOUDY    17   9  71 SW3       29.81F
MONROE         CLOUDY    17   8  67 W7        29.85S WCI   8
MT. CLEMENS    CLOUDY    14   9  81 W5        29.82S WCI   6
PONTIAC        CLOUDY    14   9  80 W7        29.79F WCI   4
PORT HOPE        N/A     15   6  67 NW15      29.79S WCI   0
PORT HURON     CLOUDY     5   0  78 CALM      29.83R
TRI CITIES     CLOUDY    15   9  76 SW7       29.82F WCI   5
MIDLAND        CLOUDY    16   9  74 CALM      29.81F
TROY           CLOUDY    17   9  69 CALM      29.84S
SAGINAW HB     CLOUDY    16   9  73 CALM      29.81F
$$
MIZ043>046-050>051-056>058-064>065-071>073-077>080-131100-
SOUTHWEST LOWER MICHIGAN

CITY           SKY/WX    TMP DP  RH WIND       PRES   REMARKS
BATTLE CREEK   CLOUDY    16  13  88 S8        29.80F WCI   5
BENTON HARBOR  CLOUDY    21  11  65 S7        29.81F WCI  12
BIG RAPIDS     CLOUDY    15  11  84 CALM      29.76F
COLDWATER      CLOUDY    15  10  80 SW7       29.83S WCI   5
HOLLAND        FLURRIES  17  14  88 SE6       29.80F WCI   9
GRAND RAPIDS   CLOUDY    17  15  92 SE7       29.79F WCI   8
IONIA          CLOUDY    17  12  80 S5        29.79F WCI  10
KALAMAZOO      CLOUDY    17  12  80 S7        29.80F WCI   8
LUDINGTON      FLURRIES  18  13  80 SE6       29.74F WCI  10
MARSHALL       CLOUDY    16  12  86 S5        29.82S WCI   9
MOUNT PLEASANT CLOUDY    16  11  80 SE3       29.78F
MUSKEGON       FLURRIES  18  13  80 SE8       29.78F WCI   8
SOUTH HAVEN    CLOUDY    26  11  55 SW6       29.79F WCI  19
$$
MIZ016>042-131100-
NORTHERN LOWER MICHIGAN

CITY           SKY/WX    TMP DP  RH WIND       PRES   REMARKS
ALPENA         MOCLDY     3   1  91 W5        29.80F WCI  -6
BEAVER ISLAND  FLURRIES  15  12  88 CALM      29.75F
BELLAIRE       CLOUDY    13  11  90 CALM      29.77F
CADILLAC       CLOUDY    13  10  89 S5        29.71F WCI   5
CHARLEVOIX     LGT SNOW  13   8  83 SE8       29.79F WCI   1
FRANKFORT      FLURRIES  19  13  77 SE5       29.74F WCI  12
GAYLORD        CLOUDY     8   2  76 SE3       29.71F
GRAYLING       FLURRIES  10   5  79 CALM      29.74F
HARBOR SPRINGS FLURRIES  10   6  84 E5        29.77F WCI   2
HOUGHTON LAKE  CLOUDY    12   8  84 CALM      29.75F
MANISTEE       FLURRIES  17  13  84 E5        29.74F WCI  10
OSCODA         CLOUDY     2  -3  79 W7        29.81S WCI -10
PELLSTON       FLURRIES   9   5  84 SE7       29.78F WCI  -2
ROGERS CITY    LGT SNOW  10   6  84 W5        29.80S WCI   2
TRAVERSE CITY  CLOUDY    17  11  77 S5        29.75F WCI  10
$$
MIZ007>008-015-131100-
EASTERN UPPER MICHIGAN

CITY           SKY/WX    TMP DP  RH WIND       PRES   REMARKS
KINROSS        FLURRIES  -7 -11  83 NE3       29.80F
MACKINAC ISLAN FLURRIES   8   4  83 NE9       29.77F WCI  -5
NEWBERRY       CLOUDY     7   7  97 NE6       29.74F WCI  -3
S. S. MARIE    CLOUDY    -6 -11  79 NE7       29.80F WCI -20
MUNISING         N/A     11   6  81 S7        29.71F WCI   0
$$
MIZ004>006-011>014-085-131100-
CENTRAL UPPER MICHIGAN

CITY           SKY/WX    TMP DP  RH WIND       PRES   REMARKS
MANISTIQUE     CLOUDY     7   2  82 CALM      29.74F
ESCANABA       CLOUDY    11   5  77 W3        29.72F
MENOMINEE      LGT SNOW  14  10  84 CALM      29.71F FOG
$$
MIZ001>003-009>011-084-131100-
WESTERN UPPER MICHIGAN

CITY           SKY/WX    TMP DP  RH WIND       PRES   REMARKS
IRON MOUNTAIN  LGT SNOW  11   5  77 SE8       29.63F WCI  -1
HOUGHTON       CLOUDY    12   5  73 SE8       29.61F WCI   0
COPPER HARBOR    N/A     16   8  71 S6        29.67F WCI   7
IRONWOOD       CLOUDY    13   9  84 SE9       29.51F WCI   1
$$

ABBREVIATIONS USED IN REMARKS
   TC - TEMPERATURE IN CELSIUS
  WCI - WIND CHILL INDEX
   HX - HEAT INDEX
  VSB - VISIBILITY





USA.gov is the U.S. government's official web portal to all federal, state and local government web resources and services.